Location: Polvadera
(34.2048°N, 106.9217°W)
Time: 06:31:34
(UTC+00:00)

Daily predictions for brighter satellites

Satellite Brightness Start Highest point End
(mag) Time Altitude Azimuth Time Altitude Azimuth Time Altitude Azimuth
Cosmos 2237 Rocket 4.1 12:06:51 13° NNW 12:06:51 13° NNW 12:07:43 10° NNW
Cosmos 2278 Rocket 2.9 12:07:18 31° WSW 12:07:18 31° WSW 12:11:56 10° SSW
Cosmos 1943 Rocket 3.1 12:09:39 26° WSW 12:09:39 26° WSW 12:13:23 10° SSW
Cosmos 407 Rocket 4.3 12:13:59 29° WSW 12:13:59 29° WSW 12:18:02 10° SSW
Cosmos 1943 4.3 12:08:22 10° S 12:13:40 45° ESE 12:18:59 10° NE
Cosmos 1954 Rocket 3.9 12:08:57 10° NNW 12:14:08 88° ENE 12:19:16 10° SSE
USA 229 DEB 3.3 12:11:09 10° SW 12:16:47 62° WNW 12:23:03 10° NNE
USA 229 3.3 12:11:21 10° SW 12:16:59 62° WNW 12:23:16 10° NNE
Cosmos 2016 Rocket 4.4 12:11:57 10° NNW 12:17:45 39° W 12:23:30 10° SSW
BREEZE-M DEB (TANK) 3.0 12:16:53 17° SSW 12:18:43 48° SE 12:20:58 10° ENE
Cosmos 2369 Rocket 3.7 12:13:47 10° N 12:18:58 35° ENE 12:24:08 10° SE
Cosmos 1782 Rocket 4.1 12:19:10 33° WNW 12:19:44 34° W 12:23:38 10° SSW
Helios 1A Rocket 3.3 12:18:44 10° SSE 12:21:59 48° ENE 12:25:15 10° N
IRS-1D 3.4 12:19:02 10° N 12:23:53 60° WNW 12:28:43 10° SSW
Cosmos 1869 2.8 12:21:46 12° NNW 12:24:56 70° W 12:28:25 10° S
USA 267 4.2 12:20:17 10° NNE 12:25:33 27° NNW 12:28:15 20° WNW
Iridium 4 Rocket 4.0 12:27:17 25° W 12:27:17 25° W 12:30:08 10° SW
Cosmos 1812 2.1 12:26:06 10° N 12:29:00 74° E 12:31:51 10° S
Cosmos 371 Rocket 3.2 12:24:58 10° NNW 12:29:50 83° WSW 12:34:38 10° SSE
Cosmos 304 Rocket 3.7 12:32:31 10° NNW 12:37:14 65° WSW 12:41:56 10° S
ATLAS 3B R/B 3.1 12:30:35 10° SW 12:37:42 49° NW 12:45:16 10° NNE
CZ-4 R/B 4.0 12:33:15 10° N 12:37:50 47° WNW 12:42:19 10° SW
Cosmos 2151 Rocket 4.4 12:34:12 10° N 12:38:35 54° E 12:42:55 10° SSE
Cosmos 1110 Rocket 4.0 12:35:12 10° SSW 12:40:24 64° WNW 12:45:41 10° N
Cosmos 1378 Rocket 3.5 12:36:46 10° SSW 12:40:56 54° W 12:45:07 10° N
Meteor 1-21 Rocket 4.3 12:36:19 10° SSW 12:41:57 55° W 12:47:31 10° N
Delta 142 4.4 12:39:23 14° WSW 12:42:29 36° S 12:46:18 10° ESE
Cosmos 2242 Rocket 4.3 12:41:36 10° SW 12:45:24 29° WNW 12:49:15 10° NNW
CENTAUR R/B 4.0 12:38:27 10° NNW 12:47:00 57° NE 12:56:17 10° SE
NOSS 7 (E) 4.4 12:46:40 11° NW 12:49:42 78° WSW 12:53:37 10° SSE
NOAA 12 4.5 12:47:30 10° N 12:52:27 41° WNW 12:57:22 10° SW
Cosmos 1818 3.9 12:47:24 10° SSW 12:52:45 70° ESE 12:58:09 10° NNE
Cosmos 1656 Rocket 3.8 12:49:00 10° NNW 12:54:32 54° WSW 13:00:00 10° S
Okean 1 Rocket 4.0 12:51:10 10° N 12:55:22 50° E 12:59:32 10° SSE
USA 234 3.5 12:51:41 10° SE 12:58:12 73° NE 13:04:44 10° NW
Cosmos 1441 Rocket 4.5 12:55:18 10° SSE 12:58:26 39° E 13:01:34 10° NNE
Meteor 2-17 Rocket 4.4 12:56:43 10° SSW 13:02:43 72° W 13:08:49 10° N
SL-16 R/B 3.4 13:03:18 10° WSW 13:07:24 20° WNW 13:11:31 10° N
IGS 5A 3.3 13:04:20 10° N 13:08:21 83° WNW 13:12:20 10° SSW
Cosmos 1452 Rocket 3.9 13:09:10 10° SW 13:14:05 42° WNW 13:19:02 10° N
